This demonstration page uses our WeatherBlox Daily Observations layout. Learn more.

Left ArrowRight Arrow

36.17497, -115.13722

Hourly Observations for April 30, 2020

Temp ( °F °C ) Dew Point ( °F °C ) Humidity (%) Winds ( mph kmh ) Pressure ( in mb ) Visibility ( mi km ) Precip ( " mm )
12:53 am 00:53 Clear 86 30 34 1.1 15 15 S 5 7 29.82 1010 10 16 N/A
1:53 am 01:53 Clear 86 30 37 2.8 18 18 S 9 15 29.80 1009 10 16 N/A
2:53 am 02:53 Clear 82 27.8 38 3.3 21 21 SSE 7 11 29.80 1009 10 16 N/A
3:53 am 03:53 Clear 83 28.3 37 2.8 19 19 S 9 15 29.79 1009 10 16 N/A
4:53 am 04:53 Clear 82 27.8 37 2.8 20 20 NW 5 7 29.79 1009 10 16 N/A
5:53 am 05:53 Sunny 78 25.6 39 3.9 25 25 N 5 7 29.81 1009 10 16 N/A
6:53 am 06:53 Sunny 78 25.6 40 4.4 26 26 N N/A 29.83 1010 10 16 N/A
7:53 am 07:53 Sunny 80 26.7 41 5 25 25 ENE 3 6 29.83 1010 10 16 N/A
8:53 am 08:53 Sunny 84 28.9 38 3.3 19 19 S 7 11 29.82 1010 10 16 N/A
9:53 am 09:53 Sunny 86 30 36 2.2 17 17 SSE 10 17 29.83 1010 10 16 N/A
10:53 am 10:53 Sunny 89 31.7 34 1.1 14 14 S 13 20 29.81 1010 10 16 N/A
11:53 am 11:53 Sunny 93 33.9 32 undefined 11 11 SE 13 20 29.79 1009 10 16 N/A
12:53 pm 12:53 Sunny 95 35 34 1.1 12 12 S 14 22 29.76 1008 10 16 N/A
1:53 pm 13:53 Sunny 99 37.2 32 undefined 9 9 SSW 15 24 29.74 1007 10 16 N/A
2:53 pm 14:53 Sunny 98 36.7 35 1.7 11 11 SW 20 31 29.73 1007 10 16 N/A
3:53 pm 15:53 Sunny 97 36.1 37 2.8 12 12 SSW 20 31 29.71 1006 10 16 N/A
4:53 pm 16:53 Sunny 97 36.1 37 2.8 12 12 SSW 21 33 29.70 1006 10 16 N/A
5:53 pm 17:53 Sunny 96 35.6 34 1.1 11 11 SSW 16 26 29.70 1006 10 16 N/A
6:53 pm 18:53 Sunny 94 34.4 31 -0.6 11 11 SSW 14 22 29.70 1006 10 16 N/A
7:53 pm 19:53 Clear 91 32.8 31 -0.6 12 12 S 12 19 29.71 1006 10 16 N/A
8:53 pm 20:53 Clear 89 31.7 32 undefined 13 13 SW 12 19 29.73 1007 10 16 N/A
9:53 pm 21:53 Clear 86 30 33 0.6 15 15 S 10 17 29.75 1007 10 16 N/A
10:53 pm 22:53 Clear 84 28.9 31 -0.6 15 15 S 8 13 29.75 1007 10 16 N/A
11:53 pm 23:53 Clear 81 27.2 26 -3.3 13 13 SSE 10 17 29.74 1007 10 16 N/A

Powered by AerisWeather